| time (UTC) | temp C | wind direction | speed KPH | gust KPH | rain 1hr cm | rain 24hr cm | rain mn cm | humidity % | barometer mb |
| 20260904021559 | 25 | 333 | 0.0 | 0.0 | 0.05 | 0.30 | 0.05 | 93 | 1009.8 |
| 20260904020055 | 25 | 306 | 6.4 | 11.3 | 0.05 | 0.36 | 0.05 | 93 | 1009.6 |
| 20260904014555 | 25 | 172 | 0.0 | 1.6 | 0.08 | 0.36 | 0.05 | 92 | 1009.3 |
| 20260904013113 | 25 | 208 | 0.0 | 8.0 | 0.05 | 0.33 | 0.00 | 92 | 1009.2 |
| 20260904011520 | 26 | 169 | 0.0 | 6.4 | 0.08 | 0.33 | 0.00 | 92 | 1009.4 |
| 20260904010018 | 25 | 300 | 0.0 | 9.7 | 0.05 | 0.38 | 0.30 | 92 | 1009.8 |
| 20260904004522 | 25 | 234 | 0.0 | 14.5 | 0.05 | 0.36 | 0.28 | 92 | 1010.0 |
| 20260904003023 | 25 | 321 | 12.9 | 19.3 | 0.05 | 0.33 | 0.25 | 92 | 1010.0 |
| 20260904001514 | 26 | 330 | 16.1 | 19.3 | 0.05 | 0.33 | 0.23 | 93 | 1009.7 |
| 20260904000014 | 26 | 329 | 12.9 | 19.3 | 0.08 | 0.33 | 0.23 | 93 | 1009.6 |
| 20260903234543 | 26 | 321 | 12.9 | 17.7 | 0.10 | 0.30 | 0.23 | 92 | 1009.2 |
| 20260903233045 | 26 | 318 | 8.0 | 17.7 | 0.13 | 0.28 | 0.20 | 91 | 1009.3 |
| 20260903231513 | 27 | 304 | 0.0 | 11.3 | 0.10 | 0.25 | 0.18 | 89 | 1008.8 |
| 20260903230011 | 27 | 355 | 0.0 | 9.7 | 0.08 | 0.23 | 0.15 | 84 | 1008.9 |
| 20260903224513 | 30 | 58 | 3.2 | 17.7 | 0.05 | 0.20 | 0.13 | 77 | 1008.6 |
| 20260903223013 | 31 | 128 | 9.7 | 16.1 | 0.00 | 0.15 | 0.08 | 70 | 1007.9 |
| 20260903221504 | 31 | 146 | 6.4 | 16.1 | 0.00 | 0.15 | 0.08 | 69 | 1007.9 |
| 20260903220003 | 32 | 212 | 14.5 | 20.9 | 0.00 | 0.15 | 0.08 | 67 | 1007.5 |
| 20260903214534 | 31 | 177 | 14.5 | 19.3 | 0.00 | 0.15 | 0.08 | 68 | 1007.8 |
| 20260903213040 | 31 | 148 | 14.5 | 24.1 | 0.00 | 0.15 | 0.08 | 70 | 1007.9 |
| 20260903211600 | 31 | 143 | 11.3 | 17.7 | 0.00 | 0.15 | 0.08 | 72 | 1008.0 |
| 20260903210159 | 31 | 168 | 12.9 | 20.9 | 0.00 | 0.15 | 0.08 | 72 | 1007.9 |
| 20260903204552 | 31 | 166 | 14.5 | 20.9 | 0.00 | 0.15 | 0.08 | 68 | 1008.2 |
| 20260903203054 | 32 | 220 | 11.3 | 22.5 | 0.00 | 0.15 | 0.08 | 63 | 1008.4 |
| 20260903201550 | 33 | 155 | 17.7 | 29.0 | 0.00 | 0.15 | 0.08 | 62 | 1008.4 |
| 20260903200047 | 33 | 140 | 11.3 | 29.0 | 0.00 | 0.15 | 0.08 | 64 | 1008.5 |
| 20260903194545 | 33 | 198 | 17.7 | 25.7 | 0.00 | 0.15 | 0.08 | 61 | 1008.9 |
| 20260903193038 | 33 | 235 | 9.7 | 29.0 | 0.00 | 0.15 | 0.08 | 65 | 1009.1 |
| 20260903191541 | 32 | 229 | 9.7 | 25.7 | 0.00 | 0.15 | 0.08 | 66 | 1009.3 |
| 20260903190033 | 32 | 360 | 19.3 | 33.8 | 0.00 | 0.15 | 0.08 | 66 | 1009.5 |
| 20260903184531 | 32 | 208 | 12.9 | 29.0 | 0.00 | 0.15 | 0.08 | 65 | 1009.7 |
| 20260903183031 | 32 | 219 | 14.5 | 24.1 | 0.00 | 0.15 | 0.08 | 63 | 1009.8 |
| 20260903181527 | 32 | 205 | 16.1 | 24.1 | 0.00 | 0.15 | 0.08 | 62 | 1009.7 |
| 20260903180032 | 33 | 177 | 16.1 | 29.0 | 0.00 | 0.15 | 0.08 | 60 | 1009.8 |
| 20260903174526 | 33 | 192 | 14.5 | 19.3 | 0.00 | 0.15 | 0.08 | 60 | 1009.9 |
| 20260903173020 | 33 | 166 | 12.9 | 20.9 | 0.00 | 0.15 | 0.08 | 62 | 1010.2 |
| 20260903171520 | 33 | 217 | 4.8 | 19.3 | 0.00 | 0.15 | 0.08 | 60 | 1010.3 |
| 20260903170019 | 33 | 211 | 8.0 | 20.9 | 0.00 | 0.15 | 0.08 | 60 | 1010.4 |
| 20260903164518 | 33 | 252 | 3.2 | 12.9 | 0.00 | 0.15 | 0.08 | 60 | 1010.5 |
| 20260903163013 | 33 | 200 | 8.0 | 19.3 | 0.00 | 0.15 | 0.08 | 59 | 1010.7 |
| 20260903161512 | 33 | 288 | 0.0 | 12.9 | 0.00 | 0.15 | 0.08 | 61 | 1010.7 |
| 20260903160005 | 32 | 128 | 4.8 | 9.7 | 0.00 | 0.15 | 0.08 | 65 | 1010.8 |
| 20260903154502 | 31 | 203 | 1.6 | 8.0 | 0.00 | 0.15 | 0.08 | 67 | 1010.9 |
| 20260903153055 | 30 | 312 | 0.0 | 6.4 | 0.00 | 0.15 | 0.08 | 70 | 1010.8 |
| 20260903151550 | 28 | 292 | 0.0 | 0.0 | 0.00 | 0.15 | 0.08 | 76 | 1010.9 |
| 20260903150048 | 28 | 298 | 0.0 | 0.0 | 0.00 | 0.15 | 0.08 | 81 | 1010.7 |
| 20260903144548 | 27 | 288 | 0.0 | 0.0 | 0.00 | 0.15 | 0.08 | 81 | 1010.7 |
| 20260903143037 | 26 | 311 | 0.0 | 0.0 | 0.00 | 0.15 | 0.08 | 84 | 1010.7 |
| 20260903141534 | 26 | 311 | 0.0 | 0.0 | 0.00 | 0.15 | 0.08 | 85 | 1010.6 |
| 20260903140031 | 25 | 327 | 0.0 | 0.0 | 0.00 | 0.15 | 0.08 | 87 | 1010.5 |
| 20260903134529 | -17 | 0.0 | 0.0 | 0.00 | 0.15 | 0.08 | 1010.5 | ||
| 20260903133058 | -17 | 0.0 | 0.0 | 0.00 | 0.15 | 0.08 | 1010.5 | ||
| 20260903131552 | -17 | 0.0 | 0.0 | 0.00 | 0.15 | 0.08 | 1010.3 | ||
| 20260903130044 | -17 | 0.0 | 0.0 | 0.00 | 0.15 | 0.08 | 1010.3 | ||
| 20260903124539 | -17 | 0.0 | 0.0 | 0.00 | 0.15 | 0.08 | 1010.3 | ||
| 20260903123035 | -17 | 0.0 | 0.0 | 0.00 | 0.15 | 0.08 | 1010.1 | ||
| 20260903121540 | -17 | 0.0 | 0.0 | 0.00 | 0.15 | 0.08 | 1010.2 | ||
| 20260903120026 | -17 | 0.0 | 0.0 | 0.00 | 0.15 | 0.08 | 1010.2 | ||
| 20260903114519 | -17 | 0.0 | 0.0 | 0.00 | 0.15 | 0.08 | 1009.9 | ||
| 20260903113015 | 25 | 311 | 0.0 | 1.6 | 0.00 | 0.15 | 0.08 | 86 | 1009.9 |
| 20260903111514 | 25 | 310 | 0.0 | 0.0 | 0.00 | 0.15 | 0.08 | 87 | 1009.7 |
| 20260903110011 | 25 | 310 | 6.4 | 12.9 | 0.00 | 0.15 | 0.08 | 87 | 1009.6 |
| 20260903104511 | 25 | 318 | 8.0 | 11.3 | 0.00 | 0.15 | 0.08 | 87 | 1009.5 |
| 20260903103011 | 25 | 326 | 6.4 | 9.7 | 0.00 | 0.15 | 0.08 | 88 | 1009.7 |
| 20260903101510 | 25 | 316 | 3.2 | 9.7 | 0.00 | 0.15 | 0.08 | 88 | 1009.6 |
| 20260903100007 | 25 | 289 | 0.0 | 3.2 | 0.00 | 0.15 | 0.08 | 88 | 1009.7 |
| 20260903094505 | 25 | 307 | 0.0 | 8.0 | 0.00 | 0.15 | 0.08 | 88 | 1009.7 |
| 20260903093007 | 25 | 309 | 3.2 | 8.0 | 0.00 | 0.15 | 0.08 | 88 | 1009.4 |
| 20260903091503 | 25 | 312 | 6.4 | 9.7 | 0.00 | 0.15 | 0.08 | 87 | 1009.7 |
| 20260903090001 | 25 | 337 | 1.6 | 8.0 | 0.00 | 0.15 | 0.08 | 88 | 1009.6 |
| 20260903084502 | 24 | 351 | 0.0 | 6.4 | 0.00 | 0.15 | 0.08 | 89 | 1009.9 |
| 20260903083100 | 24 | 309 | 1.6 | 8.0 | 0.00 | 0.15 | 0.08 | 88 | 1009.9 |
| 20260903081600 | 24 | 313 | 0.0 | 8.0 | 0.00 | 0.15 | 0.08 | 89 | 1010.0 |
| 20260903080057 | 24 | 311 | 4.8 | 8.0 | 0.00 | 0.15 | 0.08 | 89 | 1010.2 |
| 20260903074627 | 24 | 305 | 6.4 | 9.7 | 0.00 | 0.15 | 0.08 | 89 | 1010.3 |
| 20260903073101 | 24 | 306 | 0.0 | 6.4 | 0.00 | 0.15 | 0.08 | 89 | 1010.6 |
| 20260903071600 | 24 | 314 | 0.0 | 8.0 | 0.00 | 0.15 | 0.08 | 89 | 1010.9 |
| 20260903070100 | 24 | 294 | 1.6 | 8.0 | 0.00 | 0.15 | 0.08 | 89 | 1011.1 |
| 20260903064551 | 25 | 306 | 0.0 | 6.4 | 0.00 | 0.15 | 0.08 | 89 | 1011.2 |
| 20260903063103 | 25 | 307 | 3.2 | 9.7 | 0.00 | 0.15 | 0.08 | 89 | 1011.3 |
| 20260903061601 | 25 | 327 | 1.6 | 8.0 | 0.00 | 0.15 | 0.08 | 88 | 1011.2 |
| 20260903060049 | 25 | 311 | 1.6 | 8.0 | 0.00 | 0.15 | 0.08 | 88 | 1011.4 |
| 20260903054519 | 25 | 347 | 0.0 | 0.0 | 0.00 | 0.15 | 0.08 | 89 | 1011.3 |
| 20260903053017 | 25 | 332 | 0.0 | 0.0 | 0.00 | 0.15 | 0.08 | 89 | 1011.2 |
| 20260903051515 | 24 | 294 | 4.8 | 9.7 | 0.00 | 0.15 | 0.08 | 89 | 1011.0 |
| 20260903050015 | 25 | 309 | 3.2 | 8.0 | 0.00 | 0.15 | 0.08 | 89 | 1010.8 |
| 20260903044513 | 25 | 309 | 4.8 | 8.0 | 0.00 | 0.15 | 0.08 | 88 | 1011.0 |
| 20260903043014 | 25 | 303 | 1.6 | 8.0 | 0.00 | 0.15 | 0.08 | 88 | 1011.3 |
| 20260903041509 | 25 | 317 | 1.6 | 8.0 | 0.00 | 0.15 | 0.08 | 88 | 1011.6 |
| 20260903040011 | 25 | 355 | 0.0 | 8.0 | 0.00 | 0.15 | 0.08 | 88 | 1011.6 |
| 20260903034507 | 24 | 321 | 4.8 | 11.3 | 0.00 | 0.15 | 0.08 | 89 | 1011.7 |
| 20260903033013 | 24 | 330 | 9.7 | 12.9 | 0.00 | 0.15 | 0.08 | 89 | 1011.5 |
| 20260903031505 | 24 | 340 | 3.2 | 11.3 | 0.00 | 0.15 | 0.08 | 90 | 1011.5 |
| 20260903030100 | 24 | 336 | 4.8 | 11.3 | 0.03 | 0.15 | 0.08 | 90 | 1011.3 |
| 20260903024558 | 24 | 345 | 4.8 | 11.3 | 0.05 | 0.15 | 0.08 | 89 | 1011.2 |
| 20260903023054 | 24 | 348 | 3.2 | 11.3 | 0.05 | 0.15 | 0.08 | 89 | 1010.8 |